Lille, France

11:47 AM CET on February 22, 2017 (GMT +0100)
Lesquin

Weather History for LFQQ - December, 2012

Change the Weather History Date:

Tuesday, December 11, 2012

  Actual Average Record
Temperature  
Mean Temperature 31 °F -  
Max Temperature 36 °F 42 °F 57 °F (1997)
Min Temperature 26 °F 34 °F 23 °F (2002)
Degree Days  
Heating Degree Days 34    
Moisture  
Dew Point 28 °F    
Average Humidity 83    
Maximum Humidity 100    
Minimum Humidity 57    
Precipitation  
Precipitation 0.00 in - - ()
Sea Level Pressure  
Sea Level Pressure 30.32 in    
Wind  
Wind Speed 6 mph ()    
Max Wind Speed 8 mph    
Max Gust Speed -    
Visibility 7.2 miles    
Events      
Averages and records for this station are not official NWS values.
T = Trace of Precipitation, MM = Missing Value Source: Averaged Metar Reports

Daily Weather History Graph

Daily Weather History Graph

Search for Another Location

Airport or City:

Trip Planner

Search our weather history database for the weather conditions in past years. The results will help you decide how hot, cold, wet, or windy it might be!

Date:

Astronomy

Dec. 11, 2012 Rise Set
Actual Time 8:38 AM CET 4:43 PM CET
Civil Twilight 8:00 AM CET 5:21 PM CET
Nautical Twilight 7:18 AM CET 6:03 PM CET
Astronomical Twilight 6:38 AM CET 6:43 PM CET
Moon 6:07 AM CET (12/11) 3:14 PM CET (12/11)
Length of Visible Light 9h 21m
Length of Day
8h 04m
Waning Crescent, 5% of the Moon is Illuminated
Dec 11
Waning Crescent
Dec 13
New
Dec 20
First Quarter
Dec 28
Full
Jan 5
Last Quarter

Hourly Weather History & Observations

Time (CET) Temp. Windchill Dew Point Humidity Pressure Visibility Wind Dir Wind Speed Gust Speed Precip Events Conditions
12:00 AM 35.6 °F 29.9 °F 32.0 °F 87% 30.21 in 6.2 mi NW 6.9 mph - N/A   Mostly Cloudy
1:00 AM 36 °F - 30 °F 73% 30.26 in 16 mi NNW 6.9 mph - -   Mostly Cloudy
1:00 AM 37.4 °F 32.1 °F 30.2 °F 75% 30.24 in 6.2 mi NNW 6.9 mph - N/A   Mostly Cloudy
1:30 AM 35.6 °F 29.9 °F 30.2 °F 81% 30.24 in 6.2 mi NNW 6.9 mph - N/A   Unknown
2:00 AM 33.8 °F 27.0 °F 30.2 °F 87% 30.24 in 6.2 mi NNW 8.1 mph - N/A   Mostly Cloudy
2:30 AM 33.8 °F 27.0 °F 30.2 °F 87% 30.24 in 6.2 mi NW 8.1 mph - N/A   Mostly Cloudy
3:00 AM 33.8 °F 27.0 °F 30.2 °F 87% 30.27 in 6.2 mi NNW 8.1 mph - N/A   Overcast
3:30 AM 33.8 °F 27.7 °F 30.2 °F 87% 30.27 in 6.2 mi NNW 6.9 mph - N/A   Unknown
4:00 AM 33.8 °F 27.7 °F 30.2 °F 87% 30.27 in 6.2 mi NNW 6.9 mph - N/A   Mostly Cloudy
5:00 AM 33.8 °F 27.0 °F 30.2 °F 87% 30.27 in 6.2 mi NNW 8.1 mph - N/A   Mostly Cloudy
5:30 AM 33.8 °F 27.7 °F 30.2 °F 87% 30.27 in - NNW 6.9 mph - N/A   Clear
6:00 AM 32.0 °F 25.6 °F 30.2 °F 93% 30.27 in - NNW 6.9 mph - N/A   Clear
6:30 AM 32.0 °F 24.8 °F 30.2 °F 93% 30.30 in 6.2 mi NNW 8.1 mph - N/A   Mostly Cloudy
7:00 AM 33 °F - 31 °F 88% 30.33 in 9 mi NNW 8.1 mph - -   Partly Cloudy
7:00 AM 32.0 °F 24.8 °F 30.2 °F 93% 30.30 in 6.2 mi NNW 8.1 mph - N/A   Scattered Clouds
7:30 AM 32.0 °F 26.4 °F 30.2 °F 93% 30.30 in 6.2 mi NNW 5.8 mph - N/A   Scattered Clouds
8:00 AM 32.0 °F 25.6 °F 30.2 °F 93% 30.33 in 6.2 mi NNW 6.9 mph - N/A   Scattered Clouds
8:30 AM 32.0 °F 27.5 °F 30.2 °F 93% 30.33 in 6.2 mi NNW 4.6 mph - N/A   Partly Cloudy
9:00 AM 30.2 °F 24.3 °F 30.2 °F 100% 30.33 in 6.2 mi NNW 5.8 mph - N/A   Partly Cloudy
9:30 AM 32.0 °F 27.5 °F 30.2 °F 93% 30.33 in 6.2 mi North 4.6 mph - N/A   Partly Cloudy
10:30 AM 33.8 °F 30.8 °F 28.4 °F 81% 30.33 in - North 3.5 mph - N/A   Clear
11:00 AM 35.6 °F 31.7 °F 26.6 °F 70% 30.36 in - NNE 4.6 mph - N/A   Clear
11:30 AM 35.6 °F 29.2 °F 26.6 °F 70% 30.36 in 6.2 mi NE 8.1 mph - N/A   Partly Cloudy
12:00 PM 35.6 °F 29.9 °F 26.6 °F 70% 30.36 in 6.2 mi NE 6.9 mph - N/A   Partly Cloudy
12:30 PM 35.6 °F 29.9 °F 26.6 °F 70% 30.36 in 6.2 mi ENE 6.9 mph - N/A   Partly Cloudy
1:00 PM 37 °F - 27 °F 57% 30.38 in 19 mi ENE 4.6 mph - -   Scattered Clouds
1:00 PM 37.4 °F 33.8 °F 26.6 °F 65% 30.36 in 6.2 mi ENE 4.6 mph - N/A   Partly Cloudy
1:30 PM 37.4 °F 32.1 °F 26.6 °F 65% 30.36 in 6.2 mi NE 6.9 mph - N/A   Partly Cloudy
2:00 PM 37.4 °F 32.1 °F 26.6 °F 65% 30.36 in 6.2 mi NE 6.9 mph - N/A   Partly Cloudy
2:30 PM 35.6 °F 29.2 °F 26.6 °F 70% 30.36 in 6.2 mi ENE 8.1 mph - N/A   Partly Cloudy
3:00 PM 35.6 °F 30.7 °F 26.6 °F 70% 30.36 in 6.2 mi ENE 5.8 mph - N/A   Partly Cloudy
3:30 PM 35.6 °F 29.9 °F 26.6 °F 70% 30.36 in 6.2 mi East 6.9 mph - N/A   Partly Cloudy
4:30 PM 33.8 °F - 26.6 °F 75% 30.36 in - East 2.3 mph - N/A   Clear
5:00 PM 32.0 °F - 26.6 °F 80% 30.36 in 6.2 mi South 2.3 mph - N/A   Partly Cloudy
6:00 PM 28.4 °F - 24.8 °F 86% 30.36 in - Calm Calm - N/A   Clear
6:30 PM 28.4 °F - 24.8 °F 86% 30.36 in - Calm Calm - N/A   Clear
7:00 PM 28 °F - 26 °F 89% 30.38 in 12 mi WSW 3.5 mph - -  
7:00 PM 28.4 °F 24.6 °F 26.6 °F 93% 30.36 in - West 3.5 mph - N/A   Clear
7:30 PM 30.2 °F - 28.4 °F 93% 30.36 in - SW 1.2 mph - N/A   Clear
8:00 PM 28.4 °F - 24.8 °F 86% 30.36 in - Variable 1.2 mph - N/A   Clear
8:30 PM 26.6 °F - 24.8 °F 93% 30.36 in - West 2.3 mph - N/A   Clear
9:00 PM 28.4 °F - 26.6 °F 93% 30.36 in - Calm Calm - N/A   Clear
9:30 PM 30.2 °F - 28.4 °F 93% 30.36 in - SSW 2.3 mph - N/A   Clear
10:00 PM 30.2 °F 26.7 °F 28.4 °F 93% 30.36 in - South 3.5 mph - N/A   Clear
10:30 PM 30.2 °F 25.4 °F 26.6 °F 86% 30.36 in - West 4.6 mph - N/A   Clear
11:00 PM 30.2 °F 24.3 °F 26.6 °F 86% 30.33 in - SW 5.8 mph - N/A   Clear
11:30 PM 30.2 °F 25.4 °F 26.6 °F 86% 30.33 in - SW 4.6 mph - N/A   Clear